Location: Roc des P�zouls
(43.9667°N, 3.5500°E)
Time: 13:28:58
(UTC+00:00)

Cosmos 2233 Rocket - Pass Details

Date: 14 November 2019
Orbit: 953 x 990 km, 82.9° (Epoch: 15 December)

Event Time Altitude Azimuth Distance (km) Brightness Sun altitude
Rises 05:59:12 0° 182° (S) 3,656 7.2 -7.5°
Reaches altitude 10° 06:01:41 10° 182° (S) 2,718 6.6 -7.0°
Maximum altitude 06:07:55 81° 96° (E) 1,001 4.2 -6.0°
Drops below altitude 10° 06:14:15 10° 10° (N) 2,757 6.3 -4.9°
Sets 06:16:47 0° 10° (N) 3,713 6.9 -4.5°
